GW1127 Weather Reports


time (UTC)temp
C
wind
direction
speed
KPH
gust
KPH
rain 1hr
cm
rain 24hr
cm
rain mn
cm
humidity
%
barometer
mb
20260503005917 10 0.0 0.0 0.00 0.43 0.43 92 1008.7
20260503004957 10 0.0 0.0 0.00 0.43 0.43 91 1008.5
20260503003918 10 0.0 0.0 0.00 0.43 0.43 89 1008.4
20260503002938 11 0.0 0.0 0.00 0.43 0.43 88 1008.3
20260503001918 11 0.0 0.0 0.00 0.43 0.43 86 1008.1
20260503000918 12 0.0 0.0 0.00 0.43 0.43 84 1007.8
20260502235938 13 0.0 0.0 0.00 0.46 0.43 82 1007.8
20260502234918 13 0.0 0.0 0.00 0.51 0.43 81 1007.6
20260502233919 14 0.0 0.0 0.00 0.84 0.43 76 1007.4
20260502232919 14 0.0 0.0 0.00 0.91 0.43 73 1007.5
20260502231916 14 0.0 0.0 0.00 0.91 0.43 76 1007.5
20260502230939 14 0.0 0.0 0.00 0.91 0.43 76 1007.4
20260502225935 13 0.0 0.0 0.00 0.91 0.43 80 1007.3
20260502224919 13 353 0.0 1.6 0.00 0.91 0.43 82 1007.3
20260502223917 13 0.0 0.0 0.00 0.91 0.43 82 1007.3
20260502222917 13 0.0 0.0 0.00 0.91 0.43 81 1007.2
20260502221937 13 0.0 0.0 0.00 0.91 0.43 82 1007.2
20260502220917 13 0.0 0.0 0.00 0.91 0.43 81 1007.1
20260502215920 13 12 0.0 1.6 0.00 0.91 0.43 79 1007.0
20260502214958 13 290 0.0 3.2 0.00 0.91 0.43 79 1006.9
20260502213918 14 335 0.0 1.6 0.00 0.91 0.43 79 1006.8
20260502212919 14 178 1.6 3.2 0.00 0.91 0.43 77 1006.9
20260502211918 14 0.0 0.0 0.00 0.91 0.43 77 1006.9
20260502210918 14 352 3.2 4.8 0.00 0.91 0.43 77 1007.0
20260502205918 14 353 1.6 3.2 0.00 0.91 0.43 79 1007.0
20260502204918 13 333 0.0 1.6 0.00 0.91 0.43 79 1007.0
20260502203939 13 0.0 0.0 0.00 0.91 0.43 78 1007.0
20260502202940 13 0.0 0.0 0.00 0.91 0.43 76 1007.1
20260502201917 14 0.0 0.0 0.00 0.91 0.43 78 1007.0
20260502200916 14 158 1.6 4.8 0.00 0.91 0.43 76 1006.9
20260502195917 13 168 0.0 3.2 0.00 0.94 0.43 77 1007.0
20260502194917 14 180 3.2 3.2 0.00 0.94 0.43 77 1007.2
20260502193920 14 0.0 0.0 0.00 0.94 0.43 76 1007.3
20260502192921 13 166 3.2 6.4 0.00 0.94 0.43 78 1007.5
20260502191917 13 177 1.6 4.8 0.00 0.94 0.43 79 1007.5
20260502190918 14 170 1.6 3.2 0.00 0.94 0.43 78 1007.5
20260502185917 13 342 0.0 1.6 0.00 0.94 0.43 80 1007.7
20260502184937 13 150 1.6 4.8 0.00 0.94 0.43 79 1007.8
20260502183918 13 8 1.6 4.8 0.00 0.94 0.43 81 1007.9
20260502182918 13 351 0.0 1.6 0.00 0.94 0.43 83 1008.0
20260502181918 12 163 1.6 4.8 0.00 0.94 0.43 83 1008.1
20260502180918 12 273 1.6 3.2 0.00 0.94 0.43 83 1008.3
20260502163920 12 356 3.2 6.4 0.00 0.94 0.43 90 1009.2
20260502162940 11 351 1.6 3.2 0.00 0.94 0.43 88 1009.5
20260502162000 11 348 4.8 6.4 0.00 0.94 0.43 88 1009.7
20260502160921 11 267 1.6 1.6 0.00 0.94 0.43 88 1009.9
20260502151921 12 0.0 0.0 0.05 0.91 0.41 90 1009.5
20260502150922 12 322 1.6 3.2 0.05 0.91 0.41 90 1009.5
20260502122917 11 320 1.6 4.8 0.15 0.79 0.28 90 1008.5
20260502121916 11 333 1.6 3.2 0.15 0.79 0.28 90 1008.2
20260502120919 11 268 0.0 3.2 0.15 0.76 0.28 90 1008.3
20260502115920 11 9 1.6 3.2 0.23 0.76 0.25 89 1008.3
20260502114921 11 28 0.0 1.6 0.23 0.76 0.25 89 1008.4
20260502113917 11 23 0.0 3.2 0.13 0.66 0.15 88 1008.4
20260502112937 11 10 1.6 4.8 0.10 0.64 0.13 88 1008.3
20260502111917 11 0.0 0.0 0.13 0.64 0.13 88 1008.4
20260502110957 11 338 0.0 1.6 0.13 0.61 0.13 87 1008.5
20260502105918 11 338 0.0 1.6 0.05 0.53 0.05 86 1008.4
20260502104918 12 3 1.6 3.2 0.03 0.53 0.03 84 1008.4
20260502103918 12 355 1.6 3.2 0.03 0.53 0.03 83 1008.5
20260502102918 12 343 1.6 3.2 0.03 0.53 0.03 83 1008.6
20260502101919 12 25 1.6 3.2 0.00 0.51 0.00 85 1008.6
20260502100916 11 314 0.0 1.6 0.00 0.51 0.00 86 1008.7
20260502090916 11 0.0 0.0 0.00 0.51 0.00 92 1008.6
20260502070919 11 19 1.6 3.2 0.00 0.51 0.00 92 1007.7
20260502065918 11 30 0.0 1.6 0.00 0.51 0.00 92 1007.7
20260502064916 11 34 0.0 1.6 0.00 0.51 0.00 92 1007.6
20260502063919 11 0.0 0.0 0.00 0.51 0.00 92 1007.7
20260502062916 11 0.0 0.0 0.00 0.51 0.00 91 1007.7
20260502061919 11 0.0 0.0 0.00 0.51 0.00 91 1007.8
20260502060919 11 0.0 0.0 0.00 0.51 0.00 91 1007.9
20260502055920 11 0.0 0.0 0.00 0.51 0.00 91 1007.8
20260502054917 11 27 0.0 0.0 0.00 0.51 0.00 91 1007.9
20260502053937 11 0.0 0.0 0.00 0.51 0.00 91 1008.0
20260502052917 11 0.0 0.0 0.00 0.51 0.00 91 1008.0
20260502051957 11 0.0 0.0 0.00 0.51 0.00 91 1008.1
20260502050937 11 0.0 0.0 0.00 0.51 0.00 91 1008.3
20260502045918 11 0.0 0.0 0.00 0.51 0.00 91 1008.3
20260502044918 11 0.0 0.0 0.00 0.51 0.00 90 1008.3
20260502043938 11 0.0 0.0 0.00 0.51 0.00 90 1008.4
20260502042918 11 0.0 0.0 0.00 0.51 0.00 89 1008.4
20260502041918 11 0.0 0.0 0.00 0.51 0.00 89 1008.5
20260502040918 11 0.0 0.0 0.00 0.51 0.00 88 1008.7
20260502035918 11 0.0 0.0 0.00 0.51 0.51 88 1008.6
20260502034920 11 0.0 0.0 0.00 0.51 0.51 87 1008.7
20260502033919 11 327 0.0 1.6 0.00 0.51 0.51 87 1008.7
20260502032919 11 0.0 0.0 0.00 0.51 0.51 87 1008.5
20260502031916 11 309 0.0 1.6 0.00 0.51 0.51 87 1008.7
20260502030917 11 0.0 0.0 0.00 0.51 0.51 86 1008.8
20260502025917 12 0.0 0.0 0.00 0.51 0.51 86 1008.8
20260502024940 12 0.0 0.0 0.00 0.51 0.51 85 1008.8
20260502023917 12 0.0 0.0 0.00 0.51 0.51 84 1008.8
20260502022958 12 134 0.0 0.0 0.00 0.51 0.51 84 1008.8
20260502021917 12 326 0.0 1.6 0.00 0.51 0.51 84 1009.0
20260502020958 12 172 0.0 3.2 0.00 0.51 0.51 84 1008.9
20260502015918 12 0.0 0.0 0.00 0.51 0.51 84 1009.0
20260502014918 12 0.0 0.0 0.00 0.51 0.51 84 1008.8
20260502013919 12 0.0 0.0 0.00 0.51 0.51 84 1008.8
20260502012918 12 0.0 0.0 0.00 0.51 0.51 84 1008.8
20260502011918 12 0.0 0.0 0.00 0.51 0.51 84 1008.8
20260502010916 11 0.0 0.0 0.00 0.51 0.51 84 1008.7